Vorticity
7 6 7 9 11 9 7 7 8 8 8 8 8 8 8 8 8 9 10 10 10 10
5 9 10 7 7 6 7 6 7 8 9 8 8 7 8 8 8 9 9 10 10 10
7 8 7 7 7 7 8 7 7 7 8 8 8 8 7 7 6 7 7 8 9 11
6 5 5 6 6 6 7 6 7 7 7 8 8 7 7 7 6 6 7 7 8 10
5 5 7 7 8 7 8 7 7 8 8 8 9 9 10 8 6 5 5 7 9 6
7 7 7 7 7 7 7 8 9 10 9 10 10 10 11 10 6 8 9 9 7 5
8 7 7 7 8 10 11 11 10 9 9 10 10 11 11 11 12 6 9 6 6 4
6 9 12 14 14 14 12 10 10 10 11 10 9 10 10 10 13 10 8 11 8 9
12 15 16 17 17 16 15 14 15 14 14 13 12 11 9 10 11 13 13 21 5 7
16 15 12 10 10 11 11 11 10 10 9 11 11 11 10 9 9 9 12 11 6 21
11 10 10 12 12 9 6 5 6 8 12 12 13 11 10 8 8 9 10 8 5 22
9 10 9 8 7 6 7 9 10 13 12 15 17 13 12 10 10 11 11 10 12 17
10 9 8 8 9 8 9 15 13 11 7 13 19 17 14 11 11 12 13 12 13 19
7 7 9 9 5 8 11 11 12 8 9 11 20 19 15 13 12 13 14 17 17 12
Height
3108 3106 3103 3100 3097 3094 3091 3088 3084 3081 3078 3075 3072 3070 3067 3065 3062 3060 3057 3054 3052 3049
3104 3101 3098 3095 3092 3088 3085 3081 3078 3075 3072 3069 3066 3064 3061 3059 3056 3053 3051 3048 3045 3043
3098 3094 3091 3088 3085 3082 3078 3075 3072 3069 3066 3064 3061 3058 3056 3053 3051 3048 3046 3043 3040 3037
3093 3089 3086 3082 3078 3075 3072 3068 3065 3062 3059 3056 3053 3051 3049 3046 3044 3042 3039 3036 3033 3030
3085 3082 3079 3075 3071 3067 3064 3061 3057 3055 3052 3049 3047 3045 3043 3040 3037 3035 3032 3030 3027 3024
3078 3075 3071 3067 3063 3059 3056 3054 3051 3048 3045 3042 3040 3038 3035 3032 3029 3027 3024 3022 3021 3017
3071 3067 3063 3059 3055 3052 3049 3046 3043 3040 3037 3035 3032 3030 3027 3024 3021 3019 3016 3014 3012 3010
3062 3058 3055 3051 3047 3044 3040 3037 3034 3031 3028 3025 3023 3021 3017 3014 3013 3011 3008 3006 3004 3002
3055 3051 3046 3043 3039 3036 3032 3028 3025 3022 3019 3016 3014 3011 3008 3005 3003 3001 2999 2997 2995 2994
3047 3043 3039 3036 3032 3028 3025 3021 3018 3014 3010 3007 3004 3001 2998 2995 2994 2992 2990 2988 2986 2984
3039 3036 3032 3029 3025 3022 3018 3014 3010 3007 3002 2998 2996 2992 2988 2985 2983 2983 2980 2979 2976 2975
3031 3029 3025 3022 3018 3014 3011 3007 3002 2997 2993 2988 2986 2982 2979 2976 2974 2973 2971 2969 2966 2964
3024 3020 3018 3014 3011 3007 3002 2997 2992 2989 2984 2979 2976 2972 2968 2965 2964 2963 2961 2959 2957 2955
3016 3013 3008 3005 3001 2996 2992 2988 2983 2979 2975 2970 2965 2962 2958 2956 2954 2953 2951 2949 2948 2947